[[{"header":{"parameterUnit":"m.s-1","parameterCategory":1,"la1":30.2991,"la2":30.254,"lo1":-89.0895,"lo2":-89.0444,"dy":0.0017,"dx":0.0017,"nx":28,"ny":28,"refTime":"2023-08-23T03:00:00:Z","depth":0,"parameterNumber":2,"parameterNumberName":"U-component_of_WINDS"},"data":[0,0,0,0,0,0,0,0,0,0,0,0,0,0,0,0,0,0,0,0,0,0,0,0,0,0,0,0,0,0,0,0,0,0,0,0,0,0,0,0,0,0,0,0,0,0,0,0,0,0,0,0,0,0,0,0,0,0,2.0532,2.0533,0,2.0621,2.0622,2.0623,2.0621,2.062,2.0619,2.0618,2.0708,2.0712,2.0715,0,0,0,0,0,0,0,0,0,0,0,0,0,2.0361,2.0364,2.0532,2.0533,2.0535,2.0621,2.0622,2.0624,2.0622,2.062,2.0619,2.0617,2.0707,2.0711,2.0715,0,0,0,0,0,0,0,0,0,0,0,0,0,2.0441,2.0365,2.0532,2.0544,2.0546,2.0621,2.0622,2.0624,2.0622,2.062,2.0618,2.0617,2.0706,2.0711,2.0716,2.0785,0,0,2.0732,2.0734,0,0,0,0,0,0,0,0,2.0436,2.0447,2.0541,2.0543,2.0546,2.0608,2.0595,2.0678,2.0622,2.0593,2.0618,2.0616,2.0676,2.0684,2.0705,2.0789,2.0793,2.0733,2.0736,2.0738,2.074,0,0,0,0,0,0,0,2.0431,2.0444,2.0567,2.0542,2.0545,2.0545,2.0554,2.0611,2.0644,2.0595,2.0595,2.0606,2.0677,2.07,2.0707,2.0794,2.0733,2.0737,2.074,2.0743,2.0941,2.0943,0,0,0,0,0,0,2.0423,2.0439,2.0565,2.057,2.0486,2.0549,2.056,2.059,2.0643,2.0649,2.0608,2.0606,2.0691,2.0701,2.071,2.0795,2.0738,2.0743,2.0746,2.0939,2.0942,2.0944,0,0,0,0,0,0,2.0419,2.0434,2.0561,2.0505,2.0521,2.0554,2.0588,2.0593,2.0615,2.0652,2.0658,2.0624,2.069,2.0702,2.0767,2.0798,2.0745,2.075,2.0937,2.094,2.0943,2.0965,0,0,0,0,0,0,2.0414,2.0433,2.0459,2.0505,2.0524,2.0616,2.059,2.0596,2.0624,2.0623,2.0669,2.0675,2.069,2.0759,2.0772,2.0804,2.0754,2.0934,2.0938,2.0942,2.0962,2.0969,2.0975,0,0,0,0,0,2.0408,2.0461,2.0461,2.0476,2.0557,2.0618,2.0629,2.0644,2.0627,2.0654,2.0678,2.0674,2.0793,2.0765,2.078,2.0815,2.0932,2.0937,2.0942,2.0959,2.0967,2.0974,0,0,0,0,0,0,2.0417,2.0468,2.0467,2.0537,2.0573,2.0618,2.0652,2.0652,2.0694,2.0691,2.0708,2.0719,2.0784,2.0805,2.0774,2.0885,2.086,2.0868,2.0868,2.0877,2.0883,2.0876,2.0759,0,0,0,0,0,2.0428,2.0473,2.0514,2.0572,2.059,2.0618,2.0645,2.0654,2.0692,2.0708,2.0736,2.0774,2.0819,2.0849,2.0893,2.0965,2.0976,2.0996,2.1002,2.1008,2.1014,2.1055,2.1065,2.096,2.096,2.0959,0,0,2.0449,2.0482,2.0509,2.0574,2.0604,2.065,2.0631,2.0681,2.0715,2.0715,2.0778,2.08,2.0843,2.0912,2.0943,2.0932,2.1046,2.1014,2.1017,2.1021,2.1061,2.1071,2.108,2.0963,2.0962,2.0962,0,0,2.0512,2.0541,2.0593,2.0623,2.0668,2.0687,2.0699,2.0744,2.0759,2.0822,2.0823,2.0865,2.0943,2.0974,2.1,2.1077,2.1075,2.109,2.1124,2.1164,2.1172,2.1179,2.1208,2.1217,2.1097,2.1097,2.1097,0,2.0533,2.0604,2.062,2.067,2.0699,2.0702,2.0754,2.0783,2.084,2.086,2.0846,2.0945,2.0974,2.1051,2.107,2.109,2.1106,2.1085,2.1169,2.1177,2.1184,2.1211,2.1222,2.1099,2.1098,2.1098,2.1098,0,2.0628,2.0676,2.0713,2.0769,2.0802,2.0853,2.0877,2.0909,2.0915,2.0935,2.1,2.1035,2.1087,2.1106,2.1112,2.1184,2.1176,2.1166,2.1141,2.1196,2.1222,2.1232,2.1101,2.11,2.11,2.11,0,0,2.0698,2.0763,2.0776,2.0802,2.0853,2.0891,2.0943,2.0994,2.1021,2.106,2.1105,2.1172,2.1163,2.1193,2.1203,2.1238,2.1298,2.1224,2.1225,2.1237,2.138,2.1387,2.1399,2.1297,2.1299,2.13,2.1377,0,2.0767,2.086,2.0876,2.0957,2.1003,2.1007,2.1052,2.1088,2.1108,2.115,2.1173,2.122,2.1205,2.1223,2.1258,2.1283,2.1327,2.1278,2.1339,2.1341,2.1328,2.1412,2.142,2.149,2.1387,2.1388,2.139,0,2.086,2.0903,2.0988,2.1034,2.1054,2.1094,2.1143,2.1183,2.1224,2.1237,2.1271,2.1277,2.1332,2.1305,2.1381,2.1347,2.1373,2.139,2.1393,2.1399,2.1369,2.1422,2.1513,2.1524,2.1405,2.1404,2.1403,0,2.0904,2.0983,2.1045,2.1067,2.1121,2.115,2.1173,2.1213,2.1243,2.1286,2.1306,2.1354,2.1381,2.1419,2.1438,2.1417,2.1514,2.1488,2.1526,2.1526,2.1546,2.1545,2.1643,2.1562,2.1562,2.1562,2.1562,0,2.098,2.1032,2.1066,2.1103,2.1163,2.1181,2.124,2.1263,2.1298,2.1341,2.1347,2.1387,2.1411,2.1455,2.147,2.1532,2.1543,2.1555,2.1559,2.1555,2.1554,2.1573,2.1569,2.1565,2.1564,2.1563,2.1563,0,2.1039,2.1063,2.1131,2.1177,2.119,2.1232,2.1272,2.1309,2.133,2.1384,2.1398,2.143,2.1482,2.1506,2.157,2.1581,2.1651,2.1651,2.1637,2.1638,2.1675,2.1672,2.179,2.1807,2.1714,2.1715,2.1715,0,2.1086,2.1127,2.1177,2.1207,2.1232,2.1279,2.131,2.133,2.1363,2.1414,2.1445,2.1497,2.154,2.1623,2.1653,2.1702,2.1704,2.1742,2.1711,2.1707,2.1705,2.1703,2.1708,2.1747,2.1748,2.1749,2.175,0,2.1167,2.1177,2.1222,2.1272,2.1309,2.1348,2.1387,2.1411,2.1438,2.1474,2.1527,2.1561,2.1627,2.1679,2.1731,2.1755,2.1758,2.1759,2.1771,2.1767,2.1758,2.1765,2.1653,2.1756,2.1756,2.1755,2.1755,2.1755,2.1222,2.1259,2.1301,2.1351,2.1382,2.1419,2.1457,2.1483,2.1528,2.1583,2.1592,2.165,2.1691,2.1761,2.1788,2.1833,2.1824,2.1841,2.1845,2.1849,2.1852,2.1751,2.1843,2.1842,2.1842,2.1842,2.1842,0,2.1304,2.1331,2.1377,2.1432,2.1472,2.147,2.1514,2.1547,2.1597,2.1636,2.1679,2.1741,2.1792,2.1826,2.1878,2.1908,2.191,2.1921,2.1919,2.1925,2.1856,2.1841,2.1918,2.1918,2.1918,2.1918,2.1918,2.1918,2.1351,2.1414,2.1429,2.1508,2.1535,2.1591,2.1616,2.1651,2.1682,2.1751,2.1793,2.1815,2.1853,2.1907,2.1954,2.1963,2.1982,2.1993,2.2002,2.1937,2.1929,2.1922,2.1908,2.1997,2.1997,2.2067,2.2067,2.2068]},{"header":{"parameterUnit":"m.s-1","parameterCategory":1,"la1":30.2991,"la2":30.254,"lo1":-89.0895,"lo2":-89.0444,"dy":0.0017,"dx":0.0017,"nx":28,"ny":28,"refTime":"2023-08-23T03:00:00:Z","depth":0,"parameterNumber":3,"parameterNumberName":"V-component_of_WINDS"},"data":[0,0,0,0,0,0,0,0,0,0,0,0,0,0,0,0,0,0,0,0,0,0,0,0,0,0,0,0,0,0,0,0,0,0,0,0,0,0,0,0,0,0,0,0,0,0,0,0,0,0,0,0,0,0,0,0,0,0,-2.5847,-2.5847,0,-2.5919,-2.592,-2.5921,-2.5908,-2.5907,-2.5905,-2.5904,-2.5976,-2.5979,-2.5982,0,0,0,0,0,0,0,0,0,0,0,0,0,-2.5695,-2.5698,-2.5847,-2.5848,-2.5848,-2.5919,-2.592,-2.5921,-2.5908,-2.5907,-2.5905,-2.5904,-2.5975,-2.5979,-2.5983,0,0,0,0,0,0,0,0,0,0,0,0,0,-2.5763,-2.5699,-2.5846,-2.5851,-2.5852,-2.5919,-2.592,-2.5921,-2.5908,-2.5907,-2.5905,-2.5903,-2.5974,-2.5979,-2.5983,-2.605,0,0,-2.5997,-2.5999,0,0,0,0,0,0,0,0,-2.576,-2.5769,-2.5849,-2.585,-2.5852,-2.5903,-2.5893,-2.5965,-2.5909,-2.5887,-2.5904,-2.5902,-2.5953,-2.5959,-2.5977,-2.6054,-2.6057,-2.5998,-2.6001,-2.6003,-2.6004,0,0,0,0,0,0,0,-2.5755,-2.5766,-2.5875,-2.585,-2.5852,-2.5848,-2.5856,-2.5907,-2.593,-2.5889,-2.5888,-2.5897,-2.5953,-2.5973,-2.5979,-2.6058,-2.5998,-2.6002,-2.6005,-2.6007,-2.6194,-2.6196,0,0,0,0,0,0,-2.5749,-2.5762,-2.5873,-2.5877,-2.58,-2.5852,-2.5861,-2.5888,-2.5929,-2.5934,-2.5898,-2.5896,-2.5966,-2.5973,-2.5981,-2.6063,-2.6003,-2.6007,-2.601,-2.6192,-2.6194,-2.6197,0,0,0,0,0,0,-2.5746,-2.5759,-2.587,-2.582,-2.5833,-2.5857,-2.5888,-2.5891,-2.591,-2.5937,-2.594,-2.5914,-2.5964,-2.5975,-2.6034,-2.6065,-2.6009,-2.6013,-2.6189,-2.6192,-2.6195,-2.6226,0,0,0,0,0,0,-2.5742,-2.5758,-2.5784,-2.582,-2.5836,-2.5922,-2.589,-2.5893,-2.5918,-2.5916,-2.5952,-2.5956,-2.5964,-2.6027,-2.6038,-2.6071,-2.6017,-2.6186,-2.619,-2.6194,-2.6223,-2.623,-2.6237,0,0,0,0,0,-2.5736,-2.5789,-2.5786,-2.5799,-2.5869,-2.5924,-2.5933,-2.5941,-2.5921,-2.5947,-2.5964,-2.5955,-2.606,-2.6033,-2.6046,-2.608,-2.6184,-2.6189,-2.6194,-2.6219,-2.6229,-2.6237,0,0,0,0,0,0,-2.5755,-2.5794,-2.579,-2.5857,-2.5887,-2.5921,-2.5954,-2.595,-2.5986,-2.5982,-2.599,-2.5998,-2.6058,-2.6075,-2.6044,-2.6147,-2.6119,-2.6127,-2.6134,-2.6143,-2.615,-2.6145,-2.6021,0,0,0,0,0,-2.5767,-2.5809,-2.584,-2.5896,-2.5911,-2.5931,-2.5954,-2.5958,-2.5989,-2.6002,-2.6023,-2.6054,-2.6093,-2.6119,-2.6157,-2.6225,-2.6233,-2.6255,-2.6262,-2.6268,-2.6274,-2.6312,-2.6322,-2.6213,-2.6213,-2.6212,0,0,-2.5792,-2.5819,-2.5844,-2.5901,-2.5924,-2.5967,-2.5941,-2.5987,-2.6018,-2.6009,-2.6066,-2.6083,-2.6117,-2.6181,-2.621,-2.6196,-2.6307,-2.6274,-2.6279,-2.6282,-2.6318,-2.6328,-2.6337,-2.6216,-2.6215,-2.6215,0,0,-2.586,-2.5884,-2.5933,-2.5958,-2.5995,-2.6008,-2.6019,-2.6055,-2.6066,-2.6123,-2.6117,-2.6154,-2.6223,-2.6248,-2.6269,-2.6347,-2.634,-2.6359,-2.6396,-2.6432,-2.6441,-2.6449,-2.6476,-2.6486,-2.6366,-2.6366,-2.6366,0,-2.5886,-2.595,-2.5959,-2.6006,-2.603,-2.6025,-2.6075,-2.6098,-2.6145,-2.6162,-2.6147,-2.6233,-2.6256,-2.6325,-2.6344,-2.6362,-2.6376,-2.6355,-2.6439,-2.6447,-2.6454,-2.6481,-2.6491,-2.6368,-2.6367,-2.6367,-2.6367,0,-2.598,-2.6025,-2.606,-2.6107,-2.6136,-2.6184,-2.62,-2.6228,-2.6229,-2.6243,-2.6302,-2.6329,-2.6373,-2.639,-2.6391,-2.646,-2.6451,-2.6437,-2.6409,-2.6467,-2.6492,-2.6502,-2.6371,-2.637,-2.6369,-2.6369,0,0,-2.6061,-2.6113,-2.6126,-2.6147,-2.6188,-2.6222,-2.627,-2.6313,-2.6337,-2.637,-2.641,-2.6469,-2.6457,-2.6481,-2.6486,-2.6518,-2.6578,-2.65,-2.6501,-2.6514,-2.6655,-2.6665,-2.6676,-2.6574,-2.6576,-2.6577,-2.6652,0,-2.6132,-2.6217,-2.6227,-2.6302,-2.6343,-2.6339,-2.6381,-2.641,-2.6425,-2.6461,-2.6477,-2.6519,-2.65,-2.6515,-2.6546,-2.6564,-2.6606,-2.6559,-2.6611,-2.6612,-2.6602,-2.669,-2.67,-2.6769,-2.6662,-2.6664,-2.6665,0,-2.6226,-2.6262,-2.6342,-2.6378,-2.6396,-2.6433,-2.6474,-2.6509,-2.6542,-2.6551,-2.6579,-2.6579,-2.6628,-2.6599,-2.6666,-2.6634,-2.6656,-2.6668,-2.6671,-2.6675,-2.6642,-2.6696,-2.6791,-2.6802,-2.668,-2.6679,-2.6678,0,-2.6276,-2.6346,-2.6402,-2.6421,-2.6464,-2.649,-2.6509,-2.6541,-2.6567,-2.6602,-2.6619,-2.666,-2.6682,-2.6714,-2.6725,-2.6703,-2.6792,-2.6763,-2.68,-2.68,-2.6818,-2.6817,-2.6918,-2.6833,-2.6833,-2.6833,-2.6833,0,-2.6354,-2.6403,-2.6426,-2.6461,-2.6515,-2.6526,-2.658,-2.6598,-2.6626,-2.6664,-2.6663,-2.6698,-2.6712,-2.6749,-2.6759,-2.6813,-2.6823,-2.6831,-2.6833,-2.6831,-2.683,-2.6845,-2.684,-2.6836,-2.6835,-2.6835,-2.6834,0,-2.6419,-2.6437,-2.6498,-2.6535,-2.6545,-2.6584,-2.6614,-2.6648,-2.6663,-2.6711,-2.6723,-2.6745,-2.679,-2.6805,-2.6858,-2.6864,-2.6928,-2.6926,-2.6917,-2.6917,-2.6953,-2.6949,-2.7067,-2.7083,-2.6988,-2.6989,-2.6989,0,-2.6468,-2.6506,-2.6546,-2.6572,-2.6593,-2.6634,-2.6661,-2.6673,-2.6701,-2.6742,-2.6771,-2.6815,-2.6851,-2.6922,-2.6943,-2.6984,-2.6983,-2.7021,-2.6989,-2.6986,-2.6983,-2.6981,-2.6984,-2.7027,-2.7028,-2.7029,-2.7029,0,-2.6552,-2.6559,-2.6598,-2.664,-2.6672,-2.6706,-2.6738,-2.6759,-2.6776,-2.6808,-2.6854,-2.6882,-2.6937,-2.6981,-2.7023,-2.7042,-2.7039,-2.704,-2.705,-2.7048,-2.7042,-2.7046,-2.6933,-2.7037,-2.7036,-2.7035,-2.7035,-2.7035,-2.661,-2.6644,-2.6678,-2.6721,-2.6747,-2.6778,-2.6812,-2.6831,-2.687,-2.6916,-2.6921,-2.6971,-2.7003,-2.706,-2.7081,-2.712,-2.7109,-2.7124,-2.7128,-2.7131,-2.7134,-2.7036,-2.7127,-2.7127,-2.7127,-2.7127,-2.7127,0,-2.6694,-2.6716,-2.6756,-2.6802,-2.6837,-2.6831,-2.6867,-2.6896,-2.694,-2.6971,-2.7007,-2.706,-2.7103,-2.7128,-2.7171,-2.7197,-2.7196,-2.7208,-2.7206,-2.721,-2.7141,-2.7128,-2.7207,-2.7207,-2.7207,-2.7207,-2.7207,-2.7207,-2.6742,-2.6799,-2.681,-2.6879,-2.6901,-2.695,-2.6971,-2.6999,-2.7024,-2.7083,-2.7119,-2.7136,-2.7164,-2.7209,-2.7249,-2.7255,-2.727,-2.7283,-2.7288,-2.7223,-2.7215,-2.7207,-2.7194,-2.7286,-2.7286,-2.7353,-2.7354,-2.7354]}]]